Location: Shepherdstown, WV
(39.4326°N, 77.8042°W)
Time: 07:18:14
(UTC-04:00)

SR - All Passes

Search period start: 02 August 2021 00:00
Search period end: 12 August 2021 00:00
Orbit: 577 x 877 km, 66.7° (Epoch: 02 August)

Date Brightness Start Highest point End Pass type
(mag) Time Alt. Az. Time Alt. Az. Time Alt. Az.
02 Aug - 05:35:39 10° SSE 05:40:08 23° ESE 05:44:29 10° ENE visible
02 Aug - 07:16:12 10° SW 07:21:54 53° WNW 07:27:20 10° NNE daylight
02 Aug - 09:04:15 10° NW 09:05:08 10° NW 09:06:01 10° NNW daylight
02 Aug - 14:18:39 10° NNE 14:20:49 13° NE 14:22:56 10° ENE daylight
02 Aug - 15:58:55 10° NNW 16:03:39 86° WSW 16:08:00 10° SSE daylight
03 Aug - 04:49:18 10° ESE 04:50:43 11° ESE 04:52:06 10° E visible
03 Aug - 06:26:10 10° SSW 06:32:02 82° ESE 06:37:37 10° NNE daylight
03 Aug - 08:10:52 10° W 08:14:43 18° NW 08:18:25 10° N daylight
03 Aug - 15:09:14 10° NNW 15:13:46 43° NE 15:17:57 10° SE daylight
03 Aug - 16:52:18 10° WNW 16:55:20 18° WSW 16:58:15 10° SSW daylight
04 Aug - 05:36:51 10° S 05:42:19 42° ESE 05:47:34 10° NE visible
04 Aug - 07:19:24 10° WSW 07:24:30 31° NW 07:29:22 10° N daylight
04 Aug - 14:19:57 10° N 14:23:39 22° NE 14:27:07 10° E daylight
04 Aug - 16:01:32 10° NW 16:05:52 40° WSW 16:09:55 10° S daylight
05 Aug - 04:48:27 10° SSE 04:52:45 21° ESE 04:56:55 10° ENE visible
05 Aug - 06:28:45 10° SW 06:34:28 57° WNW 06:39:55 10° NNE daylight
05 Aug - 08:16:13 10° NW 08:17:38 11° NW 08:19:03 10° NNW daylight
05 Aug - 13:31:29 10° NNE 13:33:18 12° NE 13:35:05 10° ENE daylight
05 Aug - 15:11:29 10° NNW 15:16:12 87° ENE 15:20:32 10° SSE daylight
06 Aug - 05:38:47 10° SSW 05:44:38 77° ESE 05:50:10 10° NNE visible
06 Aug - 07:23:15 10° W 07:27:14 19° NW 07:31:04 10° N daylight
06 Aug - 14:21:51 10° NNW 14:26:18 39° NE 14:30:24 10° SE daylight
06 Aug - 16:04:43 10° WNW 16:07:55 19° WSW 16:11:00 10° SSW daylight
07 Aug - 04:49:33 10° S 04:54:55 39° ESE 05:00:04 10° NE visible
07 Aug - 06:31:52 10° WSW 06:37:03 33° NW 06:41:57 10° N daylight
07 Aug - 13:32:38 10° N 13:36:09 20° NE 13:39:29 10° E daylight
07 Aug - 15:14:04 10° NW 15:18:26 43° WSW 15:22:31 10° S daylight
08 Aug - 04:01:17 10° SSE 04:05:22 20° ESE 04:09:20 10° ENE visible
08 Aug - 05:41:18 10° SW 05:47:03 61° WNW 05:52:29 10° NNE visible
08 Aug - 07:28:20 10° WNW 07:30:08 11° NW 07:31:55 10° NNW daylight
08 Aug - 12:44:25 10° NNE 12:45:48 11° NE 12:47:08 10° ENE daylight
08 Aug - 14:24:04 10° NNW 14:28:44 80° ENE 14:33:04 10° SSE daylight
09 Aug - 04:51:24 10° SSW 04:57:12 72° ESE 05:02:43 10° NNE visible
09 Aug - 06:35:39 10° W 06:39:46 20° NW 06:43:42 10° N daylight
09 Aug - 13:34:28 10° NNW 13:38:48 36° NE 13:42:52 10° ESE daylight
09 Aug - 15:17:09 10° WNW 15:20:31 21° WSW 15:23:44 10° SSW daylight
10 Aug - 04:02:15 10° S 04:07:31 36° ESE 04:12:34 10° NE visible
10 Aug - 05:44:22 10° WSW 05:49:35 35° NW 05:54:34 10° NNE visible
10 Aug - 12:45:18 10° N 12:48:39 19° NE 12:51:50 10° E daylight
10 Aug - 14:26:35 10° NW 14:31:00 47° WSW 14:35:08 10° S daylight
11 Aug - 03:14:07 10° SSE 03:17:58 18° ESE 03:21:43 10° ENE visible
11 Aug - 04:53:51 10° SW 04:59:37 65° WNW 05:05:04 10° NNE visible
11 Aug - 06:40:31 10° WNW 06:42:38 12° NW 06:44:43 10° NNW daylight
11 Aug - 11:57:36 10° NNE 11:58:16 10° NE 11:58:56 10° NE daylight
11 Aug - 13:36:39 10° NNW 13:41:17 74° ENE 13:45:35 10° SE daylight
